{"data":{"norad_id":69030,"epoch":"2026-05-25T03:31:35.048352Z","epoch_age_seconds":56148,"freshness":"FRESH","line1":"1 69030U 26101F   26145.14693343  .00136558  00000+0  90110-3 0  9990","line2":"2 69030  97.2845 359.8995 0001263  79.1377 281.0031 15.75209119  3018","mean_motion":15.75209119,"eccentricity":0.0001263,"inclination_deg":97.2845,"raan_deg":359.8995,"arg_perigee_deg":79.1377,"mean_anomaly_deg":281.0031,"bstar":0.0009011,"rev_number":301,"period_min":91.416433705905,"perigee_km":343.18716436536,"apogee_km":344.88518530933,"semimajor_km":6722.1731748373,"source":"CELESTRAK","updated_at":"2026-05-25T13:38:22.080188Z"}}